Location: ??????????
(54.8537°N, 38.8755°E)
Time: 01:34:21
(UTC+00:00)

Transit 4A - Pass Details

Date: 21 September 2024
Orbit: 865 x 977 km, 66.8° (Epoch: 09 October)

Event Time Altitude Azimuth Distance (km) Brightness Sun altitude
Exits shadow 00:33:47 42° 255° (WSW) 1,267 8.1 -21.7°
Maximum altitude 00:35:45 64° 319° (NW) 1,000 8.0 -21.4°
Drops below altitude 10° 00:41:50 10° 41° (NE) 2,637 11.4 -20.7°
Sets 00:44:26 0° 44° (NE) 3,601 12.4 -20.4°
